Location: Eaton
(41.3139°N, 82.0207°W)
Time: 05:42:38
(UTC+00:00)

Cosmos 2285 Rocket - Pass Details

Date: 31 October 2021
Orbit: 970 x 1000 km, 74.0° (Epoch: 06 December)

Event Time Altitude Azimuth Distance (km) Brightness Sun altitude
Rises 10:50:26 0° 348° (NNW) 3,727 6.9 -13.3°
Reaches altitude 10° 10:53:25 10° 0° (N) 2,776 6.3 -12.7°
Maximum altitude 10:58:52 28° 58° (ENE) 1,778 6.0 -11.7°
Drops below altitude 10° 11:04:17 10° 116° (ESE) 2,764 7.7 -10.7°
Sets 11:07:14 0° 128° (SE) 3,708 8.3 -10.2°
